FW0904 Weather Reports


time (UTC)temp
C
wind
direction
speed
KPH
gust
KPH
rain 1hr
cm
rain 24hr
cm
rain mn
cm
humidity
%
barometer
mb
20260510103009 13 61 3.2 11.3 0.00 0.00 0.00 70 1017.2
20260510101507 14 52 3.2 8.0 0.00 0.00 0.00 73 1017.2
20260510100005 13 57 3.2 9.7 0.00 0.00 0.00 74 1017.3
20260510094600 12 67 1.6 9.7 0.00 0.00 0.00 77 1017.3
20260510093108 12 63 3.2 8.0 0.00 0.00 0.00 77 1017.3
20260510091558 12 41 3.2 8.0 0.00 0.00 0.00 78 1017.4
20260510090055 12 62 3.2 9.7 0.00 0.00 0.00 79 1017.4
20260510084554 11 59 3.2 8.0 0.00 0.00 0.00 80 1017.6
20260510083053 11 57 3.2 6.4 0.00 0.00 0.00 81 1017.6
20260510081620 11 67 3.2 8.0 0.00 0.00 0.00 81 1017.7
20260510080051 11 61 3.2 6.4 0.00 0.00 0.00 81 1017.7
20260510074549 11 69 1.6 6.4 0.00 0.00 0.00 83 1017.7
20260510073055 11 65 1.6 6.4 0.00 0.00 0.00 83 1017.8
20260510071544 10 40 1.6 6.4 0.00 0.00 0.00 84 1017.7
20260510070043 10 49 1.6 6.4 0.00 0.00 0.00 84 1017.9
20260510064553 10 38 1.6 4.8 0.00 0.00 0.00 85 1018.0
20260510063045 10 57 1.6 6.4 0.00 0.00 0.00 84 1018.1
20260510061546 10 36 1.6 6.4 0.00 0.00 0.00 84 1018.0
20260510060047 10 54 1.6 6.4 0.00 0.00 0.00 84 1017.9
20260510054540 10 61 1.6 6.4 0.00 0.00 0.00 85 1017.8
20260510053046 10 49 1.6 6.4 0.00 0.00 0.00 85 1017.8
20260510051545 10 63 1.6 4.8 0.00 0.00 0.00 86 1018.0
20260510050038 10 63 0.0 3.2 0.00 0.00 0.00 87 1018.0
20260510044553 10 63 1.6 4.8 0.00 0.00 0.00 87 1017.8
20260510043047 10 63 0.0 4.8 0.00 0.00 0.00 87 1017.8
20260510041537 10 60 1.6 4.8 0.00 0.00 0.00 87 1017.8
20260510040042 10 61 0.0 3.2 0.00 0.00 0.00 86 1017.8
20260510034535 10 60 1.6 4.8 0.00 0.00 0.00 87 1017.7
20260510033048 10 66 0.0 4.8 0.00 0.00 0.00 87 1017.8
20260510031537 10 66 0.0 4.8 0.00 0.00 0.00 87 1017.9
20260510030042 10 66 0.0 3.2 0.00 0.00 0.00 86 1017.8
20260510024532 10 66 0.0 3.2 0.00 0.00 0.00 86 1018.0
20260510023028 10 66 0.0 3.2 0.00 0.00 0.00 85 1018.0
20260510021527 10 66 0.0 3.2 0.00 0.00 0.00 83 1018.1
20260510020029 10 66 0.0 4.8 0.00 0.00 0.00 82 1018.0
20260510014531 10 66 1.6 3.2 0.00 0.00 0.00 81 1017.9
20260510013024 10 66 0.0 3.2 0.00 0.00 0.00 80 1018.1
20260510011522 10 66 1.6 3.2 0.00 0.00 0.00 80 1018.2
20260510010026 10 66 0.0 3.2 0.00 0.00 0.00 80 1018.3
20260510004520 10 66 0.0 3.2 0.00 0.00 0.00 80 1018.3
20260510003019 10 66 0.0 0.0 0.00 0.00 0.00 80 1018.3
20260510001518 10 66 0.0 0.0 0.00 0.00 0.00 80 1018.3
20260510000019 10 66 0.0 3.2 0.00 0.00 0.00 80 1018.4
20260509234524 10 66 1.6 3.2 0.00 0.00 0.00 80 1018.5
20260509233014 10 66 0.0 3.2 0.00 0.00 0.00 79 1018.6
20260509231513 10 66 0.0 3.2 0.00 0.00 0.00 79 1018.7
20260509230018 10 66 0.0 3.2 0.00 0.00 0.00 78 1018.7
20260509224510 10 66 0.0 3.2 0.00 0.00 0.00 78 1018.5
20260509223011 10 66 0.0 3.2 0.00 0.00 0.00 77 1018.5
20260509221508 11 66 1.6 3.2 0.00 0.00 0.00 77 1018.6
20260509220010 11 66 1.6 4.8 0.00 0.00 0.00 76 1018.6
20260509214507 11 66 1.6 4.8 0.00 0.00 0.00 75 1018.5
20260509213008 11 66 1.6 4.8 0.00 0.00 0.00 74 1018.6
20260509211508 11 66 1.6 4.8 0.00 0.00 0.00 72 1018.4
20260509210015 11 66 1.6 4.8 0.00 0.00 0.00 70 1018.3
20260509204506 11 66 1.6 4.8 0.00 0.00 0.00 67 1018.2
20260509203007 11 66 1.6 4.8 0.00 0.00 0.00 65 1018.2
20260509201504 12 66 1.6 4.8 0.00 0.00 0.00 63 1018.2
20260509200005 12 66 1.6 4.8 0.00 0.00 0.00 62 1018.1
20260509194503 12 66 1.6 4.8 0.00 0.00 0.00 62 1017.9
20260509193002 12 66 1.6 3.2 0.00 0.00 0.00 61 1017.9
20260509191501 13 66 1.6 4.8 0.00 0.00 0.00 61 1017.8
20260509190002 13 67 1.6 3.2 0.00 0.00 0.00 60 1017.8
20260509184609 13 67 0.0 4.8 0.00 0.00 0.00 59 1017.8
20260509183100 14 66 1.6 3.2 0.00 0.00 0.00 58 1017.8
20260509181559 15 67 1.6 3.2 0.00 0.00 0.00 56 1017.7
20260509180059 15 67 1.6 4.8 0.00 0.00 0.00 55 1017.7
20260509174601 16 67 1.6 4.8 0.00 0.00 0.00 56 1017.5
20260509173107 16 67 1.6 4.8 0.00 0.00 0.00 55 1017.4
20260509171622 17 67 1.6 6.4 0.00 0.00 0.00 53 1017.3
20260509170055 17 61 1.6 4.8 0.00 0.00 0.00 52 1017.3
20260509164554 18 60 1.6 4.8 0.00 0.00 0.00 51 1017.4
20260509163107 18 67 1.6 4.8 0.00 0.00 0.00 53 1017.5
20260509161554 18 76 1.6 4.8 0.00 0.00 0.00 52 1017.4
20260509160051 19 69 0.0 3.2 0.00 0.00 0.00 54 1017.4
20260509154551 19 55 1.6 4.8 0.00 0.00 0.00 51 1017.5
20260509153051 20 61 0.0 4.8 0.00 0.00 0.00 55 1017.7
20260509151547 20 65 0.0 4.8 0.00 0.00 0.00 52 1017.8
20260509144639 20 71 1.6 4.8 0.00 0.00 0.00 50 1017.8
20260509143048 20 65 1.6 4.8 0.00 0.00 0.00 51 1017.6
20260509141545 21 66 0.0 4.8 0.00 0.00 0.00 51 1017.5
20260509140042 21 71 0.0 4.8 0.00 0.00 0.00 54 1017.5
20260509134543 21 72 1.6 4.8 0.00 0.00 0.00 47 1017.5
20260509133041 21 53 1.6 4.8 0.00 0.00 0.00 50 1017.6
20260509131542 20 40 1.6 3.2 0.00 0.00 0.00 50 1017.6
20260509130038 21 38 0.0 4.8 0.00 0.00 0.00 48 1017.7
20260509124552 21 46 1.6 4.8 0.00 0.00 0.00 49 1017.9
20260509123033 21 55 1.6 3.2 0.00 0.00 0.00 47 1018.0
20260509121533 21 48 0.0 3.2 0.00 0.00 0.00 50 1018.2
20260509120028 20 86 0.0 4.8 0.00 0.00 0.00 53 1018.3
20260509114525 20 131 1.6 11.3 0.00 0.00 0.00 51 1018.5
20260509113023 20 52 0.0 3.2 0.00 0.00 0.00 54 1018.5
20260509111521 20 51 0.0 3.2 0.00 0.00 0.00 54 1018.7
20260509110020 20 54 0.0 3.2 0.00 0.00 0.00 53 1018.9
20260509104530 20 74 0.0 4.8 0.00 0.00 0.00 54 1019.0